COSMOS 2251 DEB, 40236

Orbit data source: Space-Track

COSMOS 2251 DEB, 40236 is space debris in LEO originally from a launch on Wed, 16 Jun 1993 UTC launched from the Plesetsk Missile And Space Complex (PKMTR). The debris from Iridium 33, an American commercial communications satellite, has been tracked extensively since its accidental collision with the defunct Russian satellite Cosmos 2251 in 2009. This event, occurring at high speed in low Earth orbit (LEO), generated thousands of pieces of space debris, significantly increasing the risk of further collisions. The Iridium 33 debris cloud has impacted space traffic management and orbital debris mitigation strategies, making it a subject of ongoing study in space situational awareness.

Loading next visibility...
Identifier
40236, 1993-036BVR
Orbit
LEO
Country
Flag of CISCIS
Related business
Manufacturer
Unknown
Mission
Spacecraft
Bus & Motor
Unknown
Mass
Unknown
Launch date (UTC)
1993-06-16 (33 years ago)
Launch vehicle
Unknown
Launch site
Plesetsk Missile And Space Complex (PKMTR)
Object type
Payload
Rocket body
Debris
Shape & HBR
Unknown shape, 0.1 m
Radar Cross Section
Small (<0.1 m²)

Expand to show TLE details & history
Last TLE update: 3 weeks ago

TLE from 3 weeks ago
0 COSMOS 2251 DEB
1 40236U 93036BVR 26137.05148891  .00000826  00000-0  90140-3 0  9994
2 40236  73.5373 258.8811 0535365 125.0933 240.1576 13.24963438556811
Epoch: 2026-05-17T01:14Z
TLE epoch observation values (Epoch: 2026-05-17T01:14:08.641Z)
Latitude
-0.00006°
Longitude
5.58543°
Altitude
1,384.917 km
Speed
7.064 km/s
True Right ascension
17h 15m 31s
True Declination
0° 00' 00"
Sunlit
Object was in full shadow at epoch
Visualization orbit readout
Latitude
Unknown
Longitude
Unknown
Altitude
Unknown
Speed
Unknown
Apparent Right ascension
Unknown
Apparent Declination
Unknown
Sunlit
N/A
Visualization observer readout
Local Sidereal Time
13:36:19
Azimuth
Unknown
Elevation
Unknown
Doppler factor
Unknown
Orbital elements
Apogee altitude
1,567.359 km
Perigee altitude
759.842 km
Semi-major axis
7,541.738 km
Eccentricity
0.05354
Inclination
73.5373°
RAAN
258.8811°
Arg. of periapsis
125.0933°
True anomaly
235.01485°
Mean anomaly
240.1576°
Eccentric anomaly
237.5686°
Mean motion
3.31387 °/min
Orbital period
108.63 mins
BSTAR
0.0009014
Loading maneuver chart data...
Computing Atmospheric mass density...

Documentation

Showing up to 5 results
|